TEJ102 SCEL-SCSE

Flight info

Callsign TEJ102
Flight time 0h 42m
Altitude 30000
Route DONTI5B DONTI UQ802 KUGAP KUGAP5
Aircraft A320/M-SDE3FGHIRWY/LB1

Departure

Time 2026-04-22 23:48
Airport Comodoro Arturo Merino Benítez International Airport (SCEL)

Arrival

Time 2026-04-23 00:31
Airport La Florida Airport (SCSE)
Time Latitude Longitude Altitude Speed Heading
2026-04-22 23:23 -33.39611 -70.79805 1565 ft 0 kts 176°
2026-04-22 23:39 -33.39605 -70.79805 1565 ft 4 kts 176°
2026-04-22 23:39 -33.39578 -70.79807 1565 ft 4 kts 176°
2026-04-22 23:40 -33.39555 -70.79808 1565 ft 3 kts 178°
2026-04-22 23:40 -33.39533 -70.79802 1565 ft 4 kts 237°
2026-04-22 23:40 -33.39525 -70.79773 1565 ft 3 kts 267°
2026-04-22 23:40 -33.39525 -70.79768 1565 ft 0 kts 267°
2026-04-22 23:42 -33.39525 -70.79782 1565 ft 3 kts 267°
2026-04-22 23:42 -33.39527 -70.79817 1565 ft 6 kts 267°
2026-04-22 23:42 -33.39529 -70.79875 1565 ft 8 kts 267°
2026-04-22 23:43 -33.39531 -70.79954 1565 ft 11 kts 271°
2026-04-22 23:43 -33.39498 -70.80038 1566 ft 13 kts 333°
2026-04-22 23:43 -33.39402 -70.80051 1566 ft 16 kts 356°
2026-04-22 23:43 -33.39263 -70.80060 1566 ft 24 kts 356°
2026-04-22 23:44 -33.39074 -70.80069 1567 ft 31 kts 358°
2026-04-22 23:44 -33.38838 -70.80084 1567 ft 37 kts 357°
2026-04-22 23:44 -33.38659 -70.80093 1567 ft 41 kts 357°
2026-04-22 23:44 -33.38356 -70.80114 1566 ft 46 kts 357°
2026-04-22 23:45 -33.38031 -70.80127 1566 ft 47 kts 358°
2026-04-22 23:45 -33.37595 -70.80149 1567 ft 48 kts 358°
2026-04-22 23:45 -33.37274 -70.80165 1567 ft 37 kts 357°
2026-04-22 23:45 -33.37108 -70.80241 1569 ft 7 kts 294°
2026-04-22 23:46 -33.37108 -70.80242 1569 ft 0 kts 290°
2026-04-22 23:46 -33.37107 -70.80245 1569 ft 2 kts 289°
2026-04-22 23:46 -33.37109 -70.80279 1571 ft 6 kts 265°
2026-04-22 23:47 -33.37131 -70.80341 1574 ft 11 kts 227°
2026-04-22 23:47 -33.37235 -70.80371 1573 ft 19 kts 180°
2026-04-22 23:47 -33.37518 -70.80354 1574 ft 73 kts 178°
2026-04-22 23:47 -33.38260 -70.80318 1573 ft 135 kts 177°
2026-04-22 23:48 -33.39346 -70.80250 1745 ft 168 kts 177°
2026-04-22 23:48 -33.40541 -70.80156 2484 ft 172 kts 177°
2026-04-22 23:48 -33.41745 -70.80084 3121 ft 179 kts 177°
2026-04-22 23:48 -33.43076 -70.80009 3438 ft 204 kts 176°
2026-04-22 23:49 -33.44495 -70.79929 3847 ft 227 kts 176°
2026-04-22 23:49 -33.46161 -70.80047 4343 ft 254 kts 198°
2026-04-22 23:49 -33.47620 -70.81318 5069 ft 271 kts 234°
2026-04-22 23:49 -33.48240 -70.83450 5979 ft 278 kts 266°
2026-04-22 23:50 -33.48135 -70.85774 6990 ft 280 kts 278°
2026-04-22 23:50 -33.47834 -70.88088 7976 ft 282 kts 279°
2026-04-22 23:50 -33.47525 -70.90417 8949 ft 285 kts 279°
2026-04-22 23:50 -33.47211 -70.92774 9913 ft 288 kts 279°
2026-04-22 23:51 -33.46912 -70.95205 10442 ft 306 kts 285°
2026-04-22 23:51 -33.45892 -70.97525 10710 ft 329 kts 311°
2026-04-22 23:51 -33.44112 -70.99322 11214 ft 341 kts 328°
2026-04-22 23:51 -33.41956 -71.00569 11962 ft 347 kts 340°
2026-04-22 23:52 -33.39654 -71.01480 12755 ft 351 kts 341°
2026-04-22 23:52 -33.37328 -71.02416 13545 ft 354 kts 340°
2026-04-22 23:52 -33.35004 -71.03356 14270 ft 358 kts 340°
2026-04-22 23:52 -33.32629 -71.04313 14935 ft 362 kts 340°
2026-04-22 23:53 -33.30227 -71.05268 15612 ft 365 kts 340°
2026-04-22 23:53 -33.27800 -71.06221 16274 ft 369 kts 340°
2026-04-22 23:53 -33.25340 -71.07183 16919 ft 373 kts 340°
2026-04-22 23:53 -33.22858 -71.08152 17587 ft 377 kts 340°
2026-04-22 23:54 -33.20360 -71.09126 18255 ft 380 kts 340°
2026-04-22 23:54 -33.17949 -71.10065 18847 ft 384 kts 340°
2026-04-22 23:54 -33.15393 -71.11058 19469 ft 387 kts 340°
2026-04-22 23:54 -33.12817 -71.12059 20077 ft 391 kts 340°
2026-04-22 23:55 -33.10216 -71.13070 20717 ft 395 kts 340°
2026-04-22 23:55 -33.07592 -71.14092 21302 ft 399 kts 340°
2026-04-22 23:55 -33.04940 -71.15124 21893 ft 402 kts 340°
2026-04-22 23:55 -33.02304 -71.16150 22483 ft 405 kts 340°
2026-04-22 23:56 -32.99619 -71.17195 23064 ft 407 kts 339°
2026-04-22 23:56 -32.96907 -71.18240 23628 ft 411 kts 341°
2026-04-22 23:56 -32.94088 -71.18927 24100 ft 417 kts 351°
2026-04-22 23:56 -32.91169 -71.19075 24583 ft 421 kts 356°
2026-04-22 23:57 -32.88237 -71.19124 25071 ft 422 kts 355°
2026-04-22 23:57 -32.85290 -71.19179 25544 ft 424 kts 355°
2026-04-22 23:57 -32.82368 -71.19241 26005 ft 425 kts 355°
2026-04-22 23:57 -32.79405 -71.19309 26457 ft 427 kts 354°
2026-04-22 23:58 -32.76424 -71.19374 26912 ft 428 kts 354°
2026-04-22 23:58 -32.73424 -71.19431 27358 ft 430 kts 354°
2026-04-22 23:58 -32.70420 -71.19482 27806 ft 432 kts 354°
2026-04-22 23:58 -32.67407 -71.19530 28248 ft 434 kts 353°
2026-04-22 23:59 -32.64490 -71.19578 28690 ft 435 kts 353°
2026-04-22 23:59 -32.61450 -71.19633 29055 ft 437 kts 353°
2026-04-22 23:59 -32.58399 -71.19690 29454 ft 439 kts 353°
2026-04-22 23:59 -32.55373 -71.19743 29863 ft 441 kts 352°
2026-04-23 00:00 -32.49262 -71.19842 30134 ft 434 kts 352°
2026-04-23 00:00 -32.46248 -71.19892 30139 ft 432 kts 352°
2026-04-23 00:01 -32.40261 -71.20008 30139 ft 430 kts 352°
2026-04-23 00:01 -32.34275 -71.20126 30140 ft 430 kts 352°
2026-04-23 00:02 -32.28285 -71.20237 30138 ft 430 kts 352°
2026-04-23 00:02 -32.22305 -71.20341 30136 ft 429 kts 352°
2026-04-23 00:03 -32.16358 -71.20447 30138 ft 429 kts 352°
2026-04-23 00:03 -32.10382 -71.20553 30132 ft 429 kts 352°
2026-04-23 00:04 -32.04413 -71.20666 30135 ft 429 kts 352°
2026-04-23 00:04 -31.98452 -71.20773 30115 ft 428 kts 352°
2026-04-23 00:05 -31.92485 -71.20881 30129 ft 429 kts 352°
2026-04-23 00:05 -31.86505 -71.20988 30145 ft 430 kts 352°
2026-04-23 00:06 -31.80533 -71.21097 30139 ft 429 kts 352°
2026-04-23 00:06 -31.74551 -71.21075 30139 ft 431 kts 355°
2026-04-23 00:07 -31.68581 -71.20678 30140 ft 433 kts 356°
2026-04-23 00:07 -31.62561 -71.20201 30142 ft 432 kts 356°
2026-04-23 00:08 -31.56563 -71.19804 30138 ft 432 kts 355°
2026-04-23 00:08 -31.50550 -71.19459 30143 ft 432 kts 355°
2026-04-23 00:09 -31.44564 -71.19108 29677 ft 419 kts 356°
2026-04-23 00:09 -31.41749 -71.18923 28814 ft 405 kts 356°
2026-04-23 00:09 -31.38968 -71.18745 28198 ft 397 kts 356°
2026-04-23 00:09 -31.36176 -71.18579 27580 ft 402 kts 356°
2026-04-23 00:10 -31.33387 -71.18414 26970 ft 401 kts 356°
2026-04-23 00:10 -31.30601 -71.18248 26361 ft 400 kts 357°
2026-04-23 00:10 -31.27824 -71.18084 25756 ft 399 kts 357°
2026-04-23 00:10 -31.25046 -71.17921 25138 ft 399 kts 357°
2026-04-23 00:11 -31.22259 -71.17759 24524 ft 400 kts 358°
2026-04-23 00:11 -31.19483 -71.17596 23910 ft 400 kts 358°
2026-04-23 00:11 -31.16732 -71.17434 23262 ft 400 kts 358°
2026-04-23 00:11 -31.13963 -71.17268 22658 ft 397 kts 359°
2026-04-23 00:12 -31.11212 -71.17103 22089 ft 395 kts 359°
2026-04-23 00:12 -31.08474 -71.16937 21538 ft 392 kts 359°
2026-04-23 00:12 -31.05756 -71.16772 20994 ft 391 kts 359°
2026-04-23 00:12 -31.03043 -71.16609 20470 ft 388 kts 359°
2026-04-23 00:13 -31.00352 -71.16447 19940 ft 386 kts 360°
2026-04-23 00:13 -30.97678 -71.16286 19401 ft 384 kts 360°
2026-04-23 00:13 -30.95113 -71.16134 18920 ft 382 kts
2026-04-23 00:13 -30.92459 -71.15978 18526 ft 381 kts
2026-04-23 00:14 -30.89847 -71.15822 18086 ft 378 kts
2026-04-23 00:14 -30.87330 -71.15671 17679 ft 376 kts
2026-04-23 00:14 -30.84728 -71.15515 17275 ft 373 kts
2026-04-23 00:14 -30.82142 -71.15357 16866 ft 370 kts
2026-04-23 00:15 -30.79580 -71.15200 16469 ft 367 kts
2026-04-23 00:15 -30.77042 -71.15045 16067 ft 364 kts
2026-04-23 00:15 -30.74520 -71.14892 15674 ft 361 kts
2026-04-23 00:15 -30.72013 -71.14743 15281 ft 359 kts
2026-04-23 00:16 -30.69526 -71.14597 14883 ft 356 kts
2026-04-23 00:16 -30.67095 -71.14454 14501 ft 354 kts
2026-04-23 00:16 -30.64638 -71.14307 14122 ft 351 kts
2026-04-23 00:16 -30.62210 -71.14163 13721 ft 348 kts
2026-04-23 00:17 -30.59798 -71.14019 13339 ft 346 kts
2026-04-23 00:17 -30.57396 -71.13878 12955 ft 345 kts
2026-04-23 00:17 -30.55002 -71.13738 12583 ft 343 kts
2026-04-23 00:17 -30.52621 -71.13598 12200 ft 341 kts
2026-04-23 00:18 -30.50252 -71.13458 11830 ft 340 kts
2026-04-23 00:18 -30.47927 -71.13320 11465 ft 338 kts
2026-04-23 00:18 -30.45586 -71.13180 11095 ft 336 kts
2026-04-23 00:18 -30.43254 -71.13041 10726 ft 333 kts
2026-04-23 00:19 -30.40988 -71.12906 10600 ft 318 kts
2026-04-23 00:19 -30.38827 -71.12775 10470 ft 304 kts
2026-04-23 00:19 -30.36752 -71.12647 10354 ft 293 kts
2026-04-23 00:19 -30.34817 -71.12530 10189 ft 284 kts
2026-04-23 00:20 -30.32866 -71.12413 10054 ft 277 kts
2026-04-23 00:20 -30.30930 -71.12298 9939 ft 279 kts
2026-04-23 00:20 -30.28989 -71.12184 9622 ft 278 kts
2026-04-23 00:20 -30.27061 -71.12073 9345 ft 277 kts
2026-04-23 00:21 -30.25178 -71.11653 9075 ft 277 kts 19°
2026-04-23 00:21 -30.23691 -71.10761 8858 ft 278 kts 34°
2026-04-23 00:21 -30.22301 -71.09241 8628 ft 280 kts 47°
2026-04-23 00:21 -30.21000 -71.07521 8383 ft 281 kts 47°
2026-04-23 00:22 -30.19727 -71.05852 8146 ft 280 kts 47°
2026-04-23 00:22 -30.18436 -71.04167 7901 ft 280 kts 47°
2026-04-23 00:22 -30.17147 -71.02492 7666 ft 278 kts 47°
2026-04-23 00:22 -30.15859 -71.00821 7428 ft 278 kts 47°
2026-04-23 00:23 -30.14579 -70.99162 7190 ft 274 kts 47°
2026-04-23 00:23 -30.13311 -70.97536 6950 ft 270 kts 44°
2026-04-23 00:23 -30.11832 -70.96252 6712 ft 264 kts 27°
2026-04-23 00:23 -30.10207 -70.95335 6485 ft 261 kts 26°
2026-04-23 00:24 -30.08587 -70.94428 6241 ft 257 kts 26°
2026-04-23 00:24 -30.06997 -70.93535 6024 ft 251 kts 26°
2026-04-23 00:24 -30.05434 -70.92715 5787 ft 241 kts 17°
2026-04-23 00:24 -30.03852 -70.92785 5578 ft 222 kts 335°
2026-04-23 00:25 -30.02810 -70.93869 5348 ft 204 kts 298°
2026-04-23 00:25 -30.02340 -70.95332 5081 ft 187 kts 292°
2026-04-23 00:25 -30.01778 -70.96727 4948 ft 212 kts 297°
2026-04-23 00:25 -30.01091 -70.98253 4845 ft 203 kts 298°
2026-04-23 00:26 -30.00484 -70.99590 4484 ft 183 kts 297°
2026-04-23 00:26 -29.99927 -71.00831 4209 ft 162 kts 297°
2026-04-23 00:26 -29.99450 -71.01898 4092 ft 150 kts 297°
2026-04-23 00:26 -29.98919 -71.03097 3911 ft 185 kts 297°
2026-04-23 00:27 -29.98311 -71.04489 3688 ft 189 kts 296°
2026-04-23 00:27 -29.97759 -71.05759 3366 ft 166 kts 296°
2026-04-23 00:27 -29.97272 -71.06875 3106 ft 150 kts 296°
2026-04-23 00:27 -29.96819 -71.07919 2870 ft 142 kts 296°
2026-04-23 00:28 -29.96382 -71.08929 2655 ft 138 kts 296°
2026-04-23 00:28 -29.95955 -71.09917 2443 ft 137 kts 296°
2026-04-23 00:28 -29.95534 -71.10892 2236 ft 135 kts 296°
2026-04-23 00:28 -29.95135 -71.11817 2032 ft 134 kts 296°
2026-04-23 00:29 -29.94721 -71.12781 1834 ft 133 kts 296°
2026-04-23 00:29 -29.94310 -71.13734 1637 ft 132 kts 296°
2026-04-23 00:29 -29.93903 -71.14681 1439 ft 131 kts 296°
2026-04-23 00:29 -29.93503 -71.15610 1246 ft 131 kts 296°
2026-04-23 00:30 -29.93101 -71.16543 1051 ft 130 kts 296°
2026-04-23 00:30 -29.92700 -71.17473 856 ft 129 kts 296°
2026-04-23 00:30 -29.92298 -71.18404 652 ft 129 kts 296°
2026-04-23 00:30 -29.91912 -71.19314 479 ft 116 kts 296°
2026-04-23 00:31 -29.91682 -71.19875 473 ft 41 kts 296°
2026-04-23 00:31 -29.91606 -71.20086 478 ft 19 kts 269°
2026-04-23 00:31 -29.91610 -71.20099 477 ft 0 kts 237°
2026-04-23 00:31 -29.91611 -71.20101 477 ft 1 kts 235°
2026-04-23 00:32 -29.91619 -71.20110 473 ft 2 kts 226°
2026-04-23 00:32 -29.91633 -71.20124 479 ft 3 kts 219°
2026-04-23 00:32 -29.91654 -71.20144 480 ft 5 kts 220°
2026-04-23 00:32 -29.91662 -71.20189 480 ft 7 kts 281°
2026-04-23 00:33 -29.91641 -71.20258 475 ft 11 kts 293°
2026-04-23 00:33 -29.91649 -71.20329 477 ft 8 kts 212°
2026-04-23 00:33 -29.91659 -71.20334 479 ft 0 kts 207°
2026-04-23 00:35 -29.91658 -71.20334 479 ft 0 kts 207°